TimeWET,TemperatureF,Dew PointF,Humidity,Sea Level PressureIn,VisibilityMPH,Wind Direction,Wind SpeedMPH,Gust SpeedMPH,PrecipitationIn,Events,Conditions,WindDirDegrees,DateUTC
12:00 AM,56,51,76,30.02,6,East,3.5,,,,Scattered Clouds,80,2013-03-25 00:00:00
12:00 AM,57.2,50.0,77,30.01,6.2,East,3.5,-,N/A,,Partly Cloudy,80,2013-03-25 00:00:00
1:00 AM,51.8,48.2,88,30.01,6.2,ENE,4.6,-,N/A,,Partly Cloudy,60,2013-03-25 01:00:00
2:00 AM,51.8,48.2,88,29.98,-9999.0,Calm,Calm,-,N/A,,Unknown,0,2013-03-25 02:00:00
3:00 AM,51,48,84,29.99,6,Calm,Calm,,,,,,2013-03-25 03:00:00
3:00 AM,50.0,48.2,94,29.98,6.2,Calm,Calm,-,N/A,,Unknown,0,2013-03-25 03:00:00
4:00 AM,50.0,48.2,94,29.95,6.2,Calm,Calm,-,N/A,,Partly Cloudy,0,2013-03-25 04:00:00
5:00 AM,48.2,46.4,93,29.95,6.2,NNE,3.5,-,N/A,,Unknown,30,2013-03-25 05:00:00
6:00 AM,48,46,89,29.99,6,Calm,Calm,,,,Scattered Clouds,,2013-03-25 06:00:00
6:00 AM,48.2,46.4,93,29.98,6.2,Calm,Calm,-,N/A,,Partly Cloudy,0,2013-03-25 06:00:00
7:00 AM,48.2,46.4,93,29.98,6.2,Calm,Calm,-,N/A,,Partly Cloudy,0,2013-03-25 07:00:00
8:00 AM,55.4,51.8,88,30.01,-9999.0,Calm,Calm,-,N/A,,Unknown,0,2013-03-25 08:00:00
9:00 AM,60,53,70,30.04,6,Calm,Calm,,,,Clear,,2013-03-25 09:00:00
10:00 AM,64.4,51.8,64,30.04,-9999.0,Calm,Calm,-,N/A,,Clear,0,2013-03-25 10:00:00
11:00 AM,66.2,50.0,56,30.04,-9999.0,Calm,Calm,-,N/A,,Clear,0,2013-03-25 11:00:00
12:00 PM,69,50,40,30.02,6,West,2.3,,,,Clear,280,2013-03-25 12:00:00
12:00 PM,68.0,50.0,52,30.01,-9999.0,Variable,2.3,-,N/A,,Clear,0,2013-03-25 12:00:00
1:00 PM,69.8,51.8,53,30.01,-9999.0,Calm,Calm,-,N/A,,Unknown,0,2013-03-25 13:00:00
2:00 PM,71.6,50.0,46,29.98,-9999.0,West,8.1,-,N/A,,Clear,280,2013-03-25 14:00:00
3:00 PM,70,50,38,29.97,6,West,12.7,,,,Clear,270,2013-03-25 15:00:00
3:00 PM,69.8,50.0,49,29.98,-9999.0,West,12.7,-,N/A,,Clear,270,2013-03-25 15:00:00
4:00 PM,69.8,50.0,49,29.95,-9999.0,West,12.7,-,N/A,,Clear,280,2013-03-25 16:00:00
5:00 PM,68.0,50.0,52,29.95,-9999.0,West,13.8,-,N/A,,Clear,270,2013-03-25 17:00:00
6:00 PM,67,48,40,29.96,6,West,8.1,,,,Clear,260,2013-03-25 18:00:00
6:00 PM,68.0,48.2,49,29.95,-9999.0,West,8.1,-,N/A,,Clear,260,2013-03-25 18:00:00
7:00 PM,64.4,51.8,64,29.95,-9999.0,Calm,Calm,-,N/A,,Clear,0,2013-03-25 19:00:00
8:00 PM,60.8,53.6,77,29.98,-9999.0,SSE,1.2,-,N/A,,Clear,160,2013-03-25 20:00:00
9:00 PM,60,54,75,30.01,6,SSE,8.1,,,,Clear,160,2013-03-25 21:00:00
9:00 PM,59.0,53.6,82,30.01,-9999.0,SSE,8.1,-,N/A,,Clear,160,2013-03-25 21:00:00
10:00 PM,59.0,53.6,82,30.01,-9999.0,SSE,5.8,-,N/A,,Clear,150,2013-03-25 22:00:00
11:00 PM,57.2,53.6,88,30.04,-9999.0,Calm,Calm,-,N/A,,Clear,0,2013-03-25 23:00:00